Location: Ellingshausen
(50.5460°N, 10.4723°E)
Time: 23:20:39
(UTC+00:00)

CENTAUR R/B - Pass Details

Date: 18 January 2026
Orbit: 629 x 1551 km, 63.4° (Epoch: 7 February)

Event Time Altitude Azimuth Distance (km) Brightness Sun altitude
Rises 05:20:41 0° 200° (SSW) 3,204 5.1 -16.9°
Reaches altitude 10° 05:22:55 10° 195° (SSW) 2,379 4.5 -16.6°
Maximum altitude 05:28:12 50° 121° (ESE) 1,171 3.3 -15.8°
Drops below altitude 10° 05:34:52 10° 49° (NE) 2,988 5.5 -14.7°
Sets 05:37:57 0° 45° (NE) 4,104 6.2 -14.3°
